Weather in Oberstaufen

Germany     47°33′08″N   10°01′24″E
temp.,
°C
wind,
m/s
gust,
m/s
humid.,
%
clouds,
%
prec.,
mm/h
press.,
hPa
HPBL,
m
6 may, thu
thu623:00+2ssw269798 1.3 1017284
02:00+1sse229899 1.4 101782
05:00+1sse229397 0.0 101538
08:00+3sse1186100 0.0 1014113
11:00+8ssw1258100 0.0 1011828
14:00+8nnw1262100 0.2 1008716
17:00+5s1395100 2.4 1008380
20:00+5s2498100 8.1 1008175
7 may, fri
fri723:00+5ssw41495100 5.8 10101350
02:00+5ssw3994100 6.2 1010513
05:00+5wsw4149293 0.3 10111352
08:00+5wsw41494100 0.8 10131440
11:00+1wsw01100100 8.8 101791
14:00+2sw35100100 14.6 1019281
17:00+3sw249896 1.4 1020316
20:00+3s11975 2.0 102121
8 may, sat
sat823:00−1se229550 0.0 102426
02:00−3se22956 0.0 102420
05:00−2se229433 0.0 102425
08:00+3se1289100 0.0 102266
11:00+10wsw01695 0.0 1018672
14:00+14s1256100 0.0 10161214
17:00+14ssw12555 0.0 10151081
20:00+9se228995 0.0 101625
9 may, sun
sun923:00+4se32835 0.0 101830
02:00+5se327821 0.0 101728
05:00+5se32765 0.0 101529
08:00+10se227410 0.0 101260
11:00+18w115012 0.0 1010676
14:00+22se124418 0.0 10091451
17:00+20sse224810 0.0 10071044
20:00+14sse22855 0.0 100832
10 may, mon
mon1023:00+8sse338277 0.0 101042
02:00+8se328011 0.0 100943
05:00+7se32812 0.0 100935
08:00+12sse23708 0.0 1010111
11:00+19nnw22482 0.0 10081092
14:00+20nnw2252100 0.0 1009977
17:00+18n2263100 0.1 1008930
20:00+14wnw0085100 0.3 100712